EW4676 Weather Reports


Display with metric or nautical units.
time (UTC)temp
F
wind
direction
speed
MPH
gust
MPH
rain 1hr
in
rain 24hr
in
rain mn
in
humidity
%
barometer
mb
20260505034625 74 178 9.0 25.0 0.00 0.00 0.00 68 1005.9
20260505034120 74 185 9.0 25.0 0.00 0.00 0.00 68 1005.6
20260505033657 74 218 7.0 22.0 0.00 0.00 0.00 68 1005.5
20260505033156 74 191 9.0 25.0 0.00 0.00 0.00 68 1005.6
20260505032036 74 209 8.0 20.0 0.00 0.00 0.00 68 1005.6
20260505031533 74 174 8.0 20.0 0.00 0.00 0.00 68 1005.5
20260505031030 74 184 8.0 18.0 0.00 0.00 0.00 68 1005.6
20260505031025 74 141 8.0 18.0 0.00 0.00 0.00 68 1005.7
20260505030509 74 203 7.0 18.0 0.00 0.00 0.00 67 1006.0
20260505030003 74 156 7.0 18.0 0.00 0.00 0.00 67 1006.0
20260505024957 74 160 7.0 18.0 0.00 0.00 0.00 67 1006.0
20260505024452 74 159 8.0 18.0 0.00 0.00 0.00 67 1005.9
20260505023952 75 185 8.0 19.0 0.00 0.00 0.00 67 1005.6
20260505023443 75 143 7.0 19.0 0.00 0.00 0.00 66 1005.6
20260505022941 75 170 8.0 17.0 0.00 0.00 0.00 66 1005.7
20260505022435 75 162 8.0 17.0 0.00 0.00 0.00 66 1005.6
20260505021937 75 171 7.0 15.0 0.00 0.00 0.00 66 1005.5
20260505021425 75 129 8.0 18.0 0.00 0.00 0.00 66 1005.4
20260505020924 75 152 7.0 18.0 0.00 0.00 0.00 65 1005.4
20260505020415 75 141 6.0 14.0 0.00 0.00 0.00 65 1005.4
20260505015909 75 139 7.0 15.0 0.00 0.00 0.00 65 1005.4
20260505015401 76 183 8.0 17.0 0.00 0.00 0.00 65 1005.3
20260505014856 76 193 8.0 17.0 0.00 0.00 0.00 64 1005.3
20260505014848 76 186 8.0 18.0 0.00 0.00 0.00 64 1005.3
20260505013838 76 189 7.0 18.0 0.00 0.00 0.00 64 1005.5
20260505013330 76 151 7.0 16.0 0.00 0.00 0.00 64 1005.5
20260505012821 76 209 7.0 17.0 0.00 0.00 0.00 64 1005.4
20260505012312 76 209 7.0 17.0 0.00 0.00 0.00 64 1005.4
20260505012305 76 164 8.0 17.0 0.00 0.00 0.00 63 1005.4
20260505011258 76 199 8.0 19.0 0.00 0.00 0.00 63 1005.5
20260505010758 76 181 8.0 18.0 0.00 0.00 0.00 63 1005.4
20260505010753 76 151 9.0 21.0 0.00 0.00 0.00 63 1005.4
20260505010406 76 162 10.0 18.0 0.00 0.00 0.00 63 1005.5
20260505005743 76 172 10.0 22.0 0.00 0.00 0.00 63 1005.5
20260505005233 76 129 9.0 21.0 0.00 0.00 0.00 63 1005.5
20260505004223 76 188 10.0 27.0 0.00 0.00 0.00 63 1005.5
20260505003713 77 158 8.0 27.0 0.00 0.00 0.00 62 1005.5
20260505003203 77 220 9.0 18.0 0.00 0.00 0.00 62 1005.6
20260505002653 77 193 10.0 24.0 0.00 0.00 0.00 62 1005.7
20260505002142 77 124 9.0 25.0 0.00 0.00 0.00 62 1005.7
20260505002133 77 169 10.0 25.0 0.00 0.00 0.00 62 1005.9
20260505001622 77 171 9.0 24.0 0.00 0.00 0.00 61 1005.9
20260505000612 77 195 10.0 23.0 0.00 0.00 0.00 61 1005.7
20260505000109 78 185 11.0 24.0 0.00 0.00 0.00 61 1006.0
20260505000059 78 180 10.0 22.0 0.00 0.00 0.00 61 1006.0
20260504235048 78 154 11.0 22.0 0.00 0.00 0.00 61 1006.0
20260504234538 78 228 11.0 24.0 0.00 0.00 0.00 60 1006.0
20260504234028 78 199 9.0 24.0 0.00 0.00 0.00 60 1006.1
20260504234001 78 132 10.0 26.0 0.00 0.00 0.00 60 1006.2
20260504233606 78 213 9.0 26.0 0.00 0.00 0.00 60 1006.1
20260504232451 78 190 9.0 24.0 0.00 0.00 0.00 60 1006.2
20260504231940 78 112 10.0 28.0 0.00 0.00 0.00 60 1006.2
20260504231430 78 188 11.0 28.0 0.00 0.00 0.00 60 1006.2
20260504230919 78 226 9.0 24.0 0.00 0.00 0.00 60 1006.2
20260504230410 78 128 9.0 24.0 0.00 0.00 0.00 60 1006.2
20260504225900 78 209 11.0 23.0 0.00 0.00 0.00 59 1006.4
20260504225350 79 182 10.0 25.0 0.00 0.00 0.00 59 1006.6
20260504224840 79 169 9.0 20.0 0.00 0.00 0.00 58 1006.7
20260504224831 79 213 9.0 19.0 0.00 0.00 0.00 58 1006.6
20260504223820 79 196 10.0 21.0 0.00 0.00 0.00 59 1006.6
20260504223310 79 158 10.0 20.0 0.00 0.00 0.00 59 1006.6
20260504222800 79 238 10.0 20.0 0.00 0.00 0.00 58 1006.6
20260504222250 79 198 11.0 24.0 0.00 0.00 0.00 58 1006.6
20260504221740 79 245 10.0 23.0 0.00 0.00 0.00 58 1006.7
20260504221731 80 196 10.0 24.0 0.00 0.00 0.00 58 1006.7
20260504220720 80 160 11.0 25.0 0.00 0.00 0.00 57 1006.7
20260504220210 81 170 11.0 25.0 0.00 0.00 0.00 56 1006.8
20260504215700 81 180 10.0 25.0 0.00 0.00 0.00 56 1006.9
20260504215150 81 164 9.0 19.0 0.00 0.00 0.00 55 1006.8
20260504215141 81 173 10.0 24.0 0.00 0.00 0.00 56 1006.9
20260504214130 81 190 11.0 24.0 0.00 0.00 0.00 56 1006.9
20260504213620 81 196 10.0 24.0 0.00 0.00 0.00 55 1007.0
20260504213110 82 183 9.0 24.0 0.00 0.00 0.00 54 1007.1
20260504212600 81 178 9.0 24.0 0.00 0.00 0.00 56 1007.1
20260504212550 81 209 10.0 20.0 0.00 0.00 0.00 55 1007.2
20260504211540 82 145 11.0 25.0 0.00 0.00 0.00 54 1007.3
20260504211030 82 148 11.0 25.0 0.00 0.00 0.00 54 1007.2
20260504211022 82 153 12.0 24.0 0.00 0.00 0.00 54 1007.4
20260504210010 82 147 10.0 24.0 0.00 0.00 0.00 53 1007.6
20260504205500 82 186 9.0 22.0 0.00 0.00 0.00 55 1007.5
20260504204951 82 191 11.0 22.0 0.00 0.00 0.00 54 1007.7
20260504204433 82 165 10.0 21.0 0.00 0.00 0.00 54 1008.0
20260504203922 82 174 9.0 22.0 0.00 0.00 0.00 55 1007.9
20260504203913 82 216 10.0 22.0 0.00 0.00 0.00 54 1008.0
20260504202902 81 161 11.0 25.0 0.00 0.00 0.00 54 1008.1
20260504202352 82 205 10.0 25.0 0.00 0.00 0.00 54 1008.2
20260504201842 82 210 9.0 22.0 0.00 0.00 0.00 54 1008.5
20260504201333 81 171 9.0 26.0 0.00 0.00 0.00 54 1008.5
20260504200822 81 196 9.0 26.0 0.00 0.00 0.00 56 1008.6
20260504200317 80 207 10.0 22.0 0.00 0.00 0.00 56 1008.9
20260504200313 81 172 9.0 19.0 0.00 0.00 0.00 56 1008.6
20260504195304 80 232 10.0 20.0 0.00 0.00 0.00 55 1009.0
20260504194752 80 168 11.0 20.0 0.00 0.00 0.00 56 1009.2
20260504194243 80 208 9.0 21.0 0.00 0.00 0.00 55 1009.3
20260504193732 79 153 8.0 21.0 0.00 0.00 0.00 55 1009.2
20260504193223 79 240 8.0 25.0 0.00 0.00 0.00 55 1009.4
20260504193213 80 220 9.0 25.0 0.00 0.00 0.00 54 1009.4
20260504192203 80 219 10.0 24.0 0.00 0.00 0.00 55 1009.5
20260504191652 80 233 9.0 24.0 0.00 0.00 0.00 54 1009.5
20260504191143 81 202 8.0 21.0 0.00 0.00 0.00 54 1009.6
20260504190633 81 249 9.0 21.0 0.00 0.00 0.00 56 1009.6
20260504190123 80 226 10.0 21.0 0.00 0.00 0.00 53 1009.8
20260504185604 80 180 8.0 21.0 0.00 0.00 0.00 55 1009.8
20260504185058 80 238 8.0 18.0 0.00 0.00 0.00 54 1010.0
20260504184552 80 203 9.0 16.0 0.00 0.00 0.00 54 1010.0
20260504184043 80 182 8.0 18.0 0.00 0.00 0.00 55 1010.2
20260504183536 80 150 7.0 21.0 0.00 0.00 0.00 55 1010.2
20260504183031 79 161 8.0 24.0 0.00 0.00 0.00 55 1010.2
20260504182520 79 281 9.0 24.0 0.00 0.00 0.00 55 1010.2
20260504182017 79 172 10.0 21.0 0.00 0.00 0.00 54 1010.4
20260504181509 78 262 10.0 25.0 0.00 0.00 0.00 56 1010.5
20260504181502 79 210 9.0 20.0 0.00 0.00 0.00 54 1010.6
20260504181107 78 187 11.0 25.0 0.00 0.00 0.00 55 1010.7
20260504175959 79 278 9.0 19.0 0.00 0.00 0.00 55 1010.5
20260504175453 79 248 10.0 21.0 0.00 0.00 0.00 55 1010.5
20260504174948 78 201 10.0 23.0 0.00 0.00 0.00 54 1010.8
20260504174440 79 134 9.0 23.0 0.00 0.00 0.00 53 1011.0
20260504173936 79 184 8.0 19.0 0.00 0.00 0.00 54 1011.0
20260504173428 78 213 9.0 21.0 0.00 0.00 0.00 54 1011.0
20260504172925 77 245 10.0 21.0 0.00 0.00 0.00 56 1011.1
20260504172416 78 231 10.0 19.0 0.00 0.00 0.00 53 1011.1
20260504171913 77 174 10.0 23.0 0.00 0.00 0.00 55 1011.2
20260504171406 77 230 11.0 23.0 0.00 0.00 0.00 55 1011.4
20260504170856 77 202 10.0 20.0 0.00 0.00 0.00 54 1011.4
20260504170355 77 207 10.0 22.0 0.00 0.00 0.00 54 1011.4
20260504151059 71 240 9.0 23.0 0.00 0.00 0.00 62 1012.5
20260504151050 71 172 9.0 23.0 0.00 0.00 0.00 63 1012.7
20260504140903 67 186 10.0 22.0 0.00 0.00 0.00 68 1012.9
20260504140353 66 216 10.0 17.0 0.00 0.00 0.00 68 1013.0
20260504130204 61 176 6.0 13.0 0.00 0.00 0.00 76 1013.1
20260504130154 61 202 7.0 13.0 0.00 0.00 0.00 76 1013.1
20260504110309 60 145 6.0 14.0 0.00 0.00 0.00 73 1012.5
20260504100151 60 209 7.0 15.0 0.00 0.00 0.00 71 1012.9
20260504081931 62 175 7.0 15.0 0.00 0.00 0.00 66 1013.5
20260504081926 62 178 7.0 23.0 0.00 0.00 0.00 65 1013.5
20260504080921 62 153 7.0 23.0 0.00 0.00 0.00 65 1013.5
20260504080419 62 181 7.0 17.0 0.00 0.00 0.00 64 1013.7
20260504070306 64 172 6.0 16.0 0.00 0.00 0.00 60 1014.0
20260504060113 65 211 6.0 14.0 0.00 0.00 0.00 57 1014.7
20260504050434 67 180 5.0 13.0 0.00 0.00 0.00 53 1015.4
20260504050424 67 163 5.0 13.0 0.00 0.00 0.00 53 1015.4
20260504045413 67 191 6.0 14.0 0.00 0.00 0.00 53 1015.5
20260504044903 67 174 6.0 14.0 0.00 0.00 0.00 53 1015.5
20260504044353 67 200 5.0 13.0 0.00 0.00 0.00 52 1015.5
20260504043846 67 205 4.0 13.0 0.00 0.00 0.00 52 1015.4
20260504043456 68 206 4.0 13.0 0.00 0.00 0.00 51 1015.6
20260504043444 68 182 4.0 10.0 0.00 0.00 0.00 52 1015.5
20260504041835 68 161 6.0 18.0 0.00 0.00 0.00 50 1015.7
20260504041824 68 156 7.0 18.0 0.00 0.00 0.00 50 1015.7
20260504040813 69 194 7.0 18.0 0.00 0.00 0.00 49 1015.6
20260504040804 69 201 6.0 18.0 0.00 0.00 0.00 49 1015.6
20260504035753 69 182 6.0 13.0 0.00 0.00 0.00 48 1015.6
20260504035243 69 180 7.0 19.0 0.00 0.00 0.00 48 1015.6